Voltar ao catálogo

IUS R/B(1)

AtivoGTO
NORAD 21806·ROCKET BODY·🇺🇸 United States

Lançado Nov 24, 1991 de Cape Canaveral Space Force Station

Loading…

TLE

EnvelhecendoSource: Space-Track

Época: Sep 14, 2026, 08:06 UTC

1 21806U 91080C   26257.33760175  .00000070  00000-0  79682-3 0  9991
2 21806  26.5125 172.0563 7114656 357.5345   0.3110  2.39038769 65201

Acompanhe IUS R/B(1) em tempo real com AllMySat

Download on the App Store